Tracking 19280 objects as of 15-Nov-2018
HD Live streaming from Space Station
objects crossing your sky now

FENGYUN 2D

Track FENGYUN 2D now!
FENGYUN 2D is classified as:


NORAD ID: 29640
Int'l Code: 2006-053A
Perigee: 35,769.2 km
Apogee: 35,821.9 km
Inclination: 5.4 °
Period: 1,436.2 minutes
Semi major axis: 42166 km
RCS: 2.4572 m2 (large)
Launch date: December 8, 2006
Source: People's Republic of China (PRC)
Launch site: Xichang Space Center, China (XSC)

Fengyun 2D is a Chinese made weather satellite. It is 5th satellite of the Fengyun 2 series. The satellite was launched atop Long March 3A rocket at Xichang Satellite Launch Center at 2006-12-08 08:53 CST. It entered an orbit of 202x36525 km at 09:17 CST. It will be positioned at 80.595 E above equator.
aabbcc
Your satellite tracking list
Your tracking list is empty




NASA's NSSDC Master Catalog

Two Line Element Set (TLE):
1 29640U 06053A   18318.91128712 -.00000358  00000-0  10000-3 0  9998
2 29640   5.3892  61.8739 0006248 310.5734 133.2309  1.00265371 43774
Source of the keplerian elements: AFSPC